Weather History for Lubbock, TX

Change the Weather History Date:

Wednesday, June 19, 2013

  Actual Average Record
Temperature  
Mean Temperature 75 °F 78 °F  
Max Temperature 82 °F 91 °F 107 °F (2011)
Min Temperature 67 °F 65 °F 52 °F (1945)
Degree Days  
Heating Degree Days 0 0  
Month to date heating degree days 0 0  
Since 1 June heating degree days 0 0  
Since 1 July heating degree days 3208 3377  
Cooling Degree Days 10 13  
Month to date cooling degree days 250 220  
Year to date cooling degree days 565 466  
Since 1 June cooling degree days 250 220  
Growing Degree Days 24 (Base 50)    
Moisture  
Dew Point 63 °F    
Average Humidity 73    
Maximum Humidity 93    
Minimum Humidity 53    
Precipitation  
Precipitation 0.03 in 0.10 in 0.60 in (1971)
Month to date precipitation 1.15 2.04  
Year to date precipitation 4.57 8.25  
Snow  
Snow 0.00 in 0.00 in - ()
Month to date snowfall 0.0 0.0  
Since 1 June snowfall 0.0 0.0  
Since 1 July snowfall 4.1 8.2  
Snow Depth 0.00 in    
Sea Level Pressure  
Sea Level Pressure 29.89 in    
Wind  
Wind Speed 18 mph (SE)    
Max Wind Speed 32 mph    
Max Gust Speed 38 mph    
Visibility 8 miles    
Events Rain , Thunderstorm    
T = Trace of Precipitation, MM = Missing Value Source: NWS Daily Summary

Daily Weather History Graph

Daily Weather History Graph

Search for Another Location

Airport:

Trip Planner

Search our weather history database for the weather conditions in past years. The results will help you decide how hot, cold, wet, or windy it might be!

Date:

Astronomy

Jun. 19, 2013 Rise Set
Actual Time 6:37 AM CDT 9:00 PM CDT
Civil Twilight 6:07 AM CDT 9:29 PM CDT
Nautical Twilight 5:32 AM CDT 10:05 PM CDT
Astronomical Twilight 4:53 AM CDT 10:44 PM CDT
Moon 5:02 PM CDT (6/19) 3:13 AM CDT (6/19)
Length of Visible Light 15h 21m
Length of Day
14h 23m
Waxing Gibbous, 80% of the Moon is Illuminated
Jun 19
Waxing Gibbous
Jun 23
Full
Jun 29
Last Quarter
Jul 8
New
Jul 15
First Quarter

Hourly Weather History & Observations

Time (CDT) Temp. Heat Index Dew Point Humidity Pressure Visibility Wind Dir Wind Speed Gust Speed Precip Events Conditions
12:53 AM 71.1 °F - 63.0 °F 75% 29.89 in 10.0 mi SE 11.5 mph - N/A   Clear
1:53 AM 71.1 °F - 63.0 °F 75% 29.87 in 10.0 mi SE 11.5 mph - N/A   Clear
2:53 AM 70.0 °F - 63.0 °F 78% 29.86 in 10.0 mi SE 16.1 mph - N/A   Clear
3:53 AM 69.1 °F - 63.0 °F 81% 29.85 in 10.0 mi SE 15.0 mph - N/A   Partly Cloudy
4:53 AM 68.0 °F - 64.0 °F 87% 29.86 in 10.0 mi ESE 15.0 mph - N/A   Mostly Cloudy
5:53 AM 68.0 °F - 64.0 °F 87% 29.84 in 10.0 mi SE 11.5 mph - N/A   Scattered Clouds
6:53 AM 66.9 °F - 64.0 °F 90% 29.86 in 10.0 mi SE 10.4 mph - N/A   Partly Cloudy
7:53 AM 69.1 °F - 64.0 °F 84% 29.85 in 10.0 mi SE 11.5 mph - N/A   Scattered Clouds
8:53 AM 73.0 °F - 64.9 °F 76% 29.85 in 10.0 mi South 13.8 mph - N/A   Partly Cloudy
9:53 AM 75.9 °F - 66.0 °F 71% 29.86 in 10.0 mi South 16.1 mph - N/A   Scattered Clouds
10:53 AM 79.0 °F - 66.9 °F 66% 29.87 in 10.0 mi SSE 19.6 mph 25.3 mph N/A   Scattered Clouds
11:53 AM 81.0 °F 83.0 °F 66.0 °F 60% 29.91 in 10.0 mi ESE 8.1 mph - N/A   Mostly Cloudy
12:53 PM 73.0 °F - 66.9 °F 81% 29.93 in 5.0 mi ENE 18.4 mph 29.9 mph 0.00 in Rain Light Rain
1:53 PM 75.9 °F - 63.0 °F 64% 29.90 in 3.0 mi East 25.3 mph 32.2 mph 0.01 in   Widespread Dust
1:56 PM 77.0 °F - 62.6 °F 61% 30.04 in 1.0 mi East 26.5 mph 33.4 mph N/A   Widespread Dust
2:03 PM 75.2 °F - 62.6 °F 65% 30.03 in 2.0 mi East 24.2 mph 34.5 mph N/A   Widespread Dust
2:13 PM 77.0 °F - 62.6 °F 61% 30.02 in 1.5 mi East 24.2 mph 36.8 mph N/A   Widespread Dust
2:53 PM 81.0 °F 82.5 °F 64.0 °F 56% 29.87 in 1.5 mi ESE 27.6 mph 33.4 mph N/A   Widespread Dust
3:53 PM 81.0 °F 82.5 °F 64.0 °F 56% 29.83 in 1.5 mi ESE 26.5 mph 38.0 mph N/A   Widespread Dust
4:30 PM 78.8 °F - 64.4 °F 61% 29.95 in 2.0 mi ESE 27.6 mph 34.5 mph N/A   Widespread Dust
4:50 PM 78.8 °F - 64.4 °F 61% 29.96 in 3.0 mi SE 19.6 mph 26.5 mph N/A   Widespread Dust
4:53 PM 78.1 °F - 64.0 °F 62% 29.82 in 3.0 mi SE 21.9 mph 27.6 mph N/A   Widespread Dust
5:53 PM 77.0 °F - 62.1 °F 60% 29.81 in 8.0 mi SE 17.3 mph 25.3 mph N/A   Mostly Cloudy
6:16 PM 77.0 °F - 62.6 °F 61% 29.93 in 10.0 mi SE 23.0 mph - N/A Thunderstorm Thunderstorm
6:42 PM 77.0 °F - 62.6 °F 61% 29.95 in 10.0 mi SE 16.1 mph - N/A   Mostly Cloudy
6:53 PM 79.0 °F - 62.1 °F 56% 29.80 in 10.0 mi SE 20.7 mph 26.5 mph N/A   Overcast
7:12 PM 80.6 °F 81.8 °F 62.6 °F 54% 29.95 in 7.0 mi SSE 16.1 mph 25.3 mph N/A Thunderstorm Thunderstorm
7:53 PM 80.1 °F 81.2 °F 62.1 °F 54% 29.83 in 10.0 mi South 16.1 mph 23.0 mph 0.00 in Rain , Thunderstorm Light Thunderstorms and Rain
8:53 PM 75.0 °F - 62.1 °F 64% 29.91 in 10.0 mi South 20.7 mph 26.5 mph 0.00 in Rain , Thunderstorm Light Thunderstorms and Rain
9:53 PM 71.1 °F - 60.1 °F 68% 29.98 in 10.0 mi South 23.0 mph 26.5 mph 0.01 in Rain , Thunderstorm Light Thunderstorms and Rain
10:12 PM 69.8 °F - 59.0 °F 68% 29.99 in 10.0 mi East 20.7 mph 28.8 mph 0.01 in Rain , Thunderstorm Light Thunderstorms and Rain
10:27 PM 71.6 °F - 55.4 °F 57% 29.95 in 10.0 mi SE 23.0 mph 35.7 mph 0.01 in Rain Light Rain
10:53 PM 72.0 °F - 55.9 °F 57% 29.83 in 10.0 mi SSE 26.5 mph 38.0 mph 0.01 in   Mostly Cloudy
11:53 PM 73.0 °F - 55.0 °F 53% 29.82 in 10.0 mi South 20.7 mph - N/A   Mostly Cloudy